Fountain Dale, PA

6:23 PM EST on January 20, 2018 (GMT -0500)
Fountain Dale

Weather History for KRYT - February, 2013

Change the Weather History Date:

Wednesday, February 27, 2013

  Actual Average (KHGR) Record (KHGR)
Temperature  
Mean Temperature 42 °F -  
Max Temperature 50 °F 43 °F 80 °F (1997)
Min Temperature 35 °F 27 °F 16 °F (2006)
Degree Days  
Heating Degree Days 22    
Moisture  
Dew Point 34 °F    
Average Humidity 81    
Maximum Humidity 96    
Minimum Humidity 50    
Precipitation  
Precipitation 0.08 in - - ()
Sea Level Pressure  
Sea Level Pressure 29.60 in    
Wind  
Wind Speed 6 mph (WNW)    
Max Wind Speed 12 mph    
Max Gust Speed 24 mph    
Visibility 6 miles    
Events Rain    
Averages and records for this station are not official NWS values.
T = Trace of Precipitation, MM = Missing Value Source: NWS Daily Summary

Daily Weather History Graph

Daily Weather History Graph

Search for Another Location

Airport or City:

Trip Planner

Search our weather history database for the weather conditions in past years. The results will help you decide how hot, cold, wet, or windy it might be!

Date:

Astronomy

Feb. 27, 2013 Rise Set
Actual Time 6:45 AM EST 5:59 PM EST
Civil Twilight 6:18 AM EST 6:27 PM EST
Nautical Twilight 5:47 AM EST 6:58 PM EST
Astronomical Twilight 5:15 AM EST 7:29 PM EST
Moon 8:18 PM EST (2/27) 7:20 AM EST (2/27)
Length of Visible Light 12h 08m
Length of Day
11h 14m
Waning Gibbous, 96% of the Moon is Illuminated
Feb 27
Waning Gibbous
Mar 4
Last Quarter
Mar 11
New
Mar 19
First Quarter
Mar 27
Full

Hourly Weather History & Observations

Time (EST) Temp. Windchill Dew Point Humidity Pressure Visibility Wind Dir Wind Speed Gust Speed Precip Events Conditions
12:32 AM 37.4 °F 30.8 °F 35.6 °F 93% 29.63 in 3.0 mi ENE 9.2 mph - 0.03 in   Overcast
12:58 AM 37.4 °F 32.8 °F 35.6 °F 93% 29.62 in 3.0 mi Variable 5.8 mph - N/A   Overcast
1:29 AM 37.4 °F 31.4 °F 35.6 °F 93% 29.60 in 2.5 mi ENE 8.1 mph - 0.01 in   Overcast
1:40 AM 37.4 °F 29.8 °F 35.6 °F 93% 29.59 in 3.0 mi ENE 11.5 mph 18.4 mph 0.01 in   Overcast
1:53 AM 37.0 °F 32.4 °F 36.0 °F 96% 29.62 in 3.0 mi Variable 5.8 mph 18.4 mph 0.01 in   Overcast
2:22 AM 37.4 °F 31.4 °F 35.6 °F 93% 29.56 in 2.5 mi NE 8.1 mph - 0.01 in   Overcast
2:53 AM 37.9 °F 32.7 °F 36.0 °F 93% 29.58 in 2.5 mi ENE 6.9 mph - 0.01 in Rain Light Rain
3:53 AM 37.9 °F 34.4 °F 35.1 °F 89% 29.57 in 3.0 mi Variable 4.6 mph - 0.01 in   Overcast
4:03 AM 37.4 °F 33.8 °F 35.6 °F 93% 29.53 in 2.5 mi NE 4.6 mph - 0.01 in Rain Light Rain
4:11 AM 37.4 °F 33.8 °F 35.6 °F 93% 29.53 in 4.0 mi NE 4.6 mph - 0.01 in Rain Light Rain
4:53 AM 37.9 °F - 36.0 °F 93% 29.57 in 5.0 mi Calm Calm - 0.02 in   Overcast
5:13 AM 37.4 °F - 35.6 °F 93% 29.53 in 2.0 mi Calm Calm - N/A   Overcast
5:33 AM 37.4 °F - 35.6 °F 93% 29.52 in 3.0 mi Calm Calm - 0.01 in   Overcast
5:53 AM 37.9 °F - 36.0 °F 93% 29.56 in 2.5 mi Calm Calm - 0.02 in Rain Light Rain
6:07 AM 37.4 °F - 35.6 °F 93% 29.53 in 3.0 mi Calm Calm - 0.01 in Rain Light Rain
6:44 AM 35.6 °F 32.8 °F 33.8 °F 93% 29.54 in 2.5 mi NW 3.5 mph - 0.01 in   Overcast
6:53 AM 36.0 °F - 34.0 °F 93% 29.58 in 2.0 mi Calm Calm - 0.01 in   Overcast
7:06 AM 35.6 °F 31.7 °F 33.8 °F 93% 29.54 in 2.0 mi WSW 4.6 mph - N/A   Overcast
7:14 AM 35.6 °F - 33.8 °F 93% 29.54 in 5.0 mi Calm Calm - N/A   Overcast
7:28 AM 37.4 °F - 33.8 °F 87% 29.55 in 8.0 mi Calm Calm - N/A   Overcast
7:46 AM 37.4 °F - 33.8 °F 87% 29.56 in 10.0 mi Calm Calm - N/A   Overcast
8:00 AM 35.6 °F 32.8 °F 33.8 °F 93% 29.57 in 2.5 mi Variable 3.5 mph - N/A   Overcast
8:12 AM 37.4 °F - 33.8 °F 87% 29.57 in 2.0 mi Calm Calm - N/A   Overcast
8:24 AM 37.4 °F 34.9 °F 33.8 °F 87% 29.57 in 5.0 mi Variable 3.5 mph - N/A   Overcast
8:53 AM 37.9 °F 35.5 °F 35.1 °F 89% 29.62 in 6.0 mi Variable 3.5 mph - N/A   Overcast
9:23 AM 37.4 °F 32.8 °F 35.6 °F 93% 29.59 in 8.0 mi Variable 5.8 mph - 0.00 in   Overcast
9:53 AM 39.9 °F 35.1 °F 36.0 °F 86% 29.62 in 10.0 mi Variable 6.9 mph - 0.00 in   Overcast
10:17 AM 39.2 °F 35.9 °F 35.6 °F 87% 29.59 in 10.0 mi Variable 4.6 mph 17.3 mph N/A   Mostly Cloudy
10:53 AM 43.0 °F 37.2 °F 37.0 °F 80% 29.62 in 10.0 mi WNW 10.4 mph 20.7 mph N/A   Clear
11:53 AM 46.0 °F 40.6 °F 37.0 °F 71% 29.62 in 10.0 mi West 11.5 mph 24.2 mph N/A   Clear
12:53 PM 48.0 °F - 35.1 °F 61% 29.60 in 10.0 mi WNW 9.2 mph 17.3 mph N/A   Scattered Clouds
1:53 PM 50.0 °F - 34.0 °F 54% 29.62 in 10.0 mi Variable 6.9 mph - N/A   Overcast
2:53 PM 48.9 °F - 30.9 °F 50% 29.64 in 10.0 mi WNW 11.5 mph 18.4 mph N/A   Overcast
3:53 PM 50.0 °F - 32.0 °F 50% 29.64 in 10.0 mi Variable 5.8 mph 19.6 mph N/A   Mostly Cloudy
4:53 PM 46.9 °F - 30.0 °F 52% 29.65 in 10.0 mi West 9.2 mph - N/A   Mostly Cloudy
5:53 PM 46.0 °F 41.9 °F 30.0 °F 54% 29.66 in 10.0 mi SW 8.1 mph - N/A   Partly Cloudy
6:53 PM 44.1 °F 42.5 °F 30.9 °F 60% 29.68 in 10.0 mi SSW 3.5 mph - N/A   Mostly Cloudy
7:53 PM 44.1 °F 41.5 °F 30.9 °F 60% 29.68 in 10.0 mi SSW 4.6 mph - N/A   Overcast
8:53 PM 44.1 °F 41.5 °F 30.9 °F 60% 29.68 in 10.0 mi Variable 4.6 mph - N/A   Overcast
9:53 PM 44.1 °F 42.5 °F 30.9 °F 60% 29.67 in 10.0 mi SSW 3.5 mph - N/A   Overcast
10:53 PM 43.0 °F 39.5 °F 30.9 °F 62% 29.65 in 10.0 mi SW 5.8 mph - N/A   Scattered Clouds
11:53 PM 43.0 °F 40.3 °F 30.9 °F 62% 29.64 in 10.0 mi Variable 4.6 mph - N/A   Overcast